Time,TemperatureF,DewpointF,PressureIn,WindDirection,WindDirectionDegrees,WindSpeedMPH,WindSpeedGustMPH,Humidity,HourlyPrecipIn,Conditions,Clouds,dailyrainin,SoftwareType,DateUTC
2013-08-09 00:05:00,67.9,59.7,30.05,North,0,0.0,0.0,69,0.00,NA,NA,0.00,meteo_script,2013-08-09 05:05:00,
2013-08-09 00:35:00,66.8,57.9,30.06,South,182,0.3,2.0,66,0.00,NA,NA,0.00,meteo_script,2013-08-09 05:35:00,
2013-08-09 01:05:00,65.9,57.2,30.06,South,182,0.5,2.0,67,0.00,NA,NA,0.00,meteo_script,2013-08-09 06:05:00,
2013-08-09 01:35:00,65.2,57.1,30.05,South,182,0.8,3.0,69,0.00,NA,NA,0.00,meteo_script,2013-08-09 06:35:00,
2013-08-09 02:05:00,64.3,56.1,30.05,South,182,1.4,3.0,68,0.00,NA,NA,0.00,meteo_script,2013-08-09 07:05:00,
2013-08-09 02:35:00,63.6,55.3,30.04,South,184,0.1,1.0,68,0.00,NA,NA,0.00,meteo_script,2013-08-09 07:35:00,
2013-08-09 03:05:00,63.1,55.4,30.04,South,186,0.9,2.0,70,0.00,NA,NA,0.00,meteo_script,2013-08-09 08:05:00,
2013-08-09 03:35:00,62.5,55.8,30.03,South,186,0.2,1.0,73,0.00,NA,NA,0.00,meteo_script,2013-08-09 08:35:00,
2013-08-09 04:05:00,62.2,56.0,30.04,South,186,0.9,2.0,74,0.00,NA,NA,0.00,meteo_script,2013-08-09 09:05:00,
2013-08-09 04:35:00,61.8,55.4,30.04,South,186,0.4,2.0,74,0.00,NA,NA,0.00,meteo_script,2013-08-09 09:35:00,
2013-08-09 05:05:00,61.5,55.4,30.04,South,186,0.9,2.0,75,0.00,NA,NA,0.00,meteo_script,2013-08-09 10:05:00,
2013-08-09 05:35:00,61.3,55.2,30.04,South,189,0.8,2.0,75,0.00,NA,NA,0.00,meteo_script,2013-08-09 10:35:00,
2013-08-09 06:05:00,61.4,55.3,30.03,South,189,0.0,1.0,75,0.00,NA,NA,0.00,meteo_script,2013-08-09 11:05:00,
2013-08-09 06:35:00,61.2,55.0,30.04,South,189,1.3,2.0,74,0.00,NA,NA,0.00,meteo_script,2013-08-09 11:35:00,
2013-08-09 07:05:00,61.3,55.2,30.04,South,191,1.9,3.0,75,0.00,NA,NA,0.00,meteo_script,2013-08-09 12:05:00,
2013-08-09 07:35:00,61.6,55.7,30.06,South,191,0.6,2.0,76,0.00,NA,NA,0.00,meteo_script,2013-08-09 12:35:00,
2013-08-09 08:05:00,63.1,57.6,30.05,SSW,204,0.2,2.0,77,0.00,NA,NA,0.00,meteo_script,2013-08-09 13:05:00,
2013-08-09 08:35:00,65.2,59.5,30.06,SW,229,2.1,3.0,77,0.00,NA,NA,0.00,meteo_script,2013-08-09 13:35:00,
2013-08-09 09:05:00,67.8,61.4,30.05,WSW,247,1.5,3.0,75,0.00,NA,NA,0.00,meteo_script,2013-08-09 14:05:00,
2013-08-09 09:35:00,70.8,62.7,30.04,West,264,2.4,5.0,70,0.00,NA,NA,0.00,meteo_script,2013-08-09 14:35:00,
2013-08-09 10:05:00,72.2,63.8,30.05,West,278,2.6,5.0,69,0.00,NA,NA,0.00,meteo_script,2013-08-09 15:05:00,
2013-08-09 10:35:00,73.2,64.0,30.04,West,277,2.1,5.0,67,0.00,NA,NA,0.00,meteo_script,2013-08-09 15:35:00,
2013-08-09 11:05:00,71.7,62.6,30.07,West,277,3.9,9.0,67,0.00,NA,NA,0.00,meteo_script,2013-08-09 16:05:00,
2013-08-09 11:35:00,69.7,62.0,30.06,North,0,0.0,0.0,71,0.00,NA,NA,0.00,meteo_script,2013-08-09 16:35:00,
2013-08-09 12:05:00,70.7,62.6,30.06,West,260,2.6,6.0,69,0.00,NA,NA,0.00,meteo_script,2013-08-09 17:05:00,
2013-08-09 12:35:00,71.7,63.1,30.05,WSW,255,1.1,3.0,68,0.00,NA,NA,0.00,meteo_script,2013-08-09 17:35:00,
2013-08-09 13:05:00,73.2,64.0,30.05,WSW,257,2.5,5.0,66,0.00,NA,NA,0.00,meteo_script,2013-08-09 18:05:00,
2013-08-09 13:35:00,75.3,64.8,30.06,West,266,2.3,5.0,63,0.00,NA,NA,0.00,meteo_script,2013-08-09 18:35:00,
2013-08-09 14:05:00,77.1,65.5,30.05,West,265,1.6,4.0,60,0.00,NA,NA,0.00,meteo_script,2013-08-09 19:05:00,
2013-08-09 14:35:00,77.7,64.9,30.05,WSW,257,4.1,9.0,57,0.00,NA,NA,0.00,meteo_script,2013-08-09 19:35:00,
2013-08-09 15:05:00,78.6,64.8,30.05,West,261,2.4,7.0,55,0.00,NA,NA,0.00,meteo_script,2013-08-09 20:05:00,
2013-08-09 15:35:00,78.8,64.9,30.04,West,276,0.5,3.0,55,0.00,NA,NA,0.00,meteo_script,2013-08-09 20:35:00,
2013-08-09 16:05:00,78.7,64.4,30.04,WSW,255,6.0,9.0,54,0.00,NA,NA,0.00,meteo_script,2013-08-09 21:05:00,
2013-08-09 16:35:00,78.1,63.7,30.04,West,262,8.1,13.0,53,0.00,NA,NA,0.00,meteo_script,2013-08-09 21:35:00,
2013-08-09 17:05:00,78.4,64.5,30.04,West,265,1.4,3.0,55,0.00,NA,NA,0.00,meteo_script,2013-08-09 22:05:00,
2013-08-09 17:35:00,78.0,63.9,30.04,West,272,3.2,9.0,54,0.00,NA,NA,0.00,meteo_script,2013-08-09 22:35:00,
2013-08-09 18:05:00,77.9,63.6,30.05,West,269,0.6,3.0,54,0.00,NA,NA,0.00,meteo_script,2013-08-09 23:05:00,
2013-08-09 18:35:00,77.9,62.0,30.05,West,269,2.8,9.0,50,0.00,NA,NA,0.00,meteo_script,2013-08-09 23:35:00,
2013-08-09 19:05:00,77.1,62.1,30.05,North,0,0.0,0.0,52,0.00,NA,NA,0.00,meteo_script,2013-08-10 00:05:00,
2013-08-09 19:35:00,75.6,61.1,30.05,North,0,0.0,0.0,53,0.00,NA,NA,0.00,meteo_script,2013-08-10 00:35:00,
2013-08-09 20:05:00,74.6,60.6,30.06,West,260,0.0,1.0,54,0.00,NA,NA,0.00,meteo_script,2013-08-10 01:05:00,
2013-08-09 20:35:00,73.3,59.9,30.06,North,0,0.0,0.0,54,0.00,NA,NA,0.00,meteo_script,2013-08-10 01:35:00,
2013-08-09 21:05:00,71.6,58.4,30.07,North,0,0.0,0.0,55,0.00,NA,NA,0.00,meteo_script,2013-08-10 02:05:00,
2013-08-09 21:35:00,70.6,57.4,30.08,North,0,0.0,0.0,55,0.00,NA,NA,0.00,meteo_script,2013-08-10 02:35:00,
2013-08-09 22:05:00,69.9,56.7,30.09,North,0,0.0,0.0,55,0.00,NA,NA,0.00,meteo_script,2013-08-10 03:05:00,
2013-08-09 22:35:00,68.8,56.5,30.10,North,0,0.0,0.0,57,0.00,NA,NA,0.00,meteo_script,2013-08-10 03:35:00,
2013-08-09 23:05:00,68.1,56.2,30.10,North,0,0.0,0.0,58,0.00,NA,NA,0.00,meteo_script,2013-08-10 04:05:00,
2013-08-09 23:35:00,67.9,56.0,30.10,West,261,0.0,1.0,58,0.00,NA,NA,0.00,meteo_script,2013-08-10 04:35:00,